User: anonymous   Login
Location: Caltech
(34.1382°N, 118.1253°W)
Time: 16:07:07
(UTC-08:00)
Language:

Sapphire - Orbit

View from above orbital plane
View from above orbital plane
View from above satellite
View from above satellite

Ground track
Ground track

The orbit data is extracted from the following two-line orbital elements,

1 26932U 01043D   15064.44842582  .00000119  00000-0  77813-4 0  9994
2 26932 067.0551 085.9133 0008507 259.8614 100.1527 14.30113129701001
Epoch (UTC): 05 March 2015 10:45:43
Eccentricity: 0.0008507
inclination: 67.0551°
perigee height: 785 km
apogee height: 797 km
right ascension of ascending node: 85.9133°
argument of perigee: 259.8614°
revolutions per day: 14.30113129
mean anomaly at epoch: 100.1527°
orbit number at epoch: 70100

The dashed part of the orbit path shows where the satellite is in the earth's shadow,  

DLR